Home > Weather > U.S.A. > St. Croix Falls > Past weeks

Flag for U.S.A. Weather past 2 weeks in St. Croix Falls, Wisconsin, U.S.A.

31 °F


Feels Like: 31 °F
Forecast: 24 / 36 °F
Wind: No wind

Location: L O Simenstad Municipal Airport

Current Time: Dec 1, 2015 at 8:22:52 PM

Latest Report: Dec 1, 2015 at 7:35 PM

Visibility: 10 mi

Pressure: 29.75 "Hg

Humidity: 100%

Dew point: 31 °F

Location of St. Croix FallsLocation

Historic Weather in St. Croix Falls — Graph


St. Croix Falls temperature yesterday

Maximum temperature yesterday: 36 °F (at 3:15 PM)
Minimum temperature yesterday: 30 °F (at 7:35 AM)
Average temperature yesterday: 33 °F

Past Weeks' High & Low Weather Summary

High58 °F (Nov 18, 7:35 AM)100% (Nov 16, 6:15 PM)30.65 "Hg (Nov 16, 6:15 PM)
Low8 °F (Nov 28, 5:55 AM)53% (Nov 28, 3:15 PM)29.11 "Hg (Nov 18, 12:35 PM)
Average32 °F82%30.05 "Hg
* Reported Nov 16 6:15 PM — Dec 1 6:55 PM, St. Croix Falls, Weather by CustomWeather, © 2015

Note: Actual official high and low records may vary slightly from our data, if they occured in-between our weather recording intervals... More about our weather records


St. Croix Falls weather history for previous 24 hours

Time TempWeatherWind HumidityBarometerVisibility
6:55 PM
Tue, Dec 1
31 °FMostly cloudy.No wind100%29.75 "Hg10 mi
6:35 PM31 °FMostly cloudy.No wind100%29.75 "Hg7 mi
6:15 PM31 °FMostly cloudy.No wind100%29.75 "Hg7 mi
5:15 PM32 °FMostly cloudy.3 mph99%29.74 "Hg10 mi
4:55 PM32 °FMostly cloudy.3 mph100%29.73 "Hg10 mi
4:15 PM32 °FMore clouds than sun.6 mph99%29.72 "Hg10 mi
3:55 PM32 °FCloudy.6 mph100%29.72 "Hg10 mi
3:35 PM32 °FOvercast.8 mph99%29.71 "Hg10 mi
3:15 PM32 °FMostly cloudy.6 mph100%29.71 "Hg10 mi
2:55 PM32 °FOvercast.6 mph100%29.71 "Hg7 mi
2:35 PM33 °FCloudy.10 mph100%29.69 "Hg7 mi
2:15 PM33 °FMostly cloudy.6 mph100%29.70 "Hg10 mi
1:55 PM33 °FCloudy.6 mph100%29.69 "Hg10 mi
1:35 PM34 °FMostly cloudy.6 mph98%29.69 "Hg10 mi
1:15 PM34 °FOvercast.7 mph100%29.69 "Hg10 mi
12:55 PM34 °FOvercast.3 mph100%29.69 "Hg10 mi
12:15 PM34 °FCloudy.3 mph99%29.69 "Hg10 mi
11:55 AM34 °FOvercast.5 mph100%29.69 "Hg10 mi
11:35 AM34 °FMore clouds than sun.7 mph100%29.69 "Hg10 mi
11:15 AM34 °FMostly cloudy.7 mph100%29.70 "Hg10 mi
10:55 AM34 °FMostly cloudy.5 mph100%29.71 "Hg10 mi
10:35 AM34 °FLow clouds.5 mph100%29.71 "Hg10 mi
10:15 AM34 °FLow clouds.6 mph100%29.71 "Hg10 mi
9:55 AM34 °FMostly cloudy.5 mph100%29.70 "Hg10 mi
9:35 AM34 °FLow clouds.3 mph100%29.69 "Hg7 mi
9:15 AM34 °FLow clouds.7 mph100%29.69 "Hg7 mi
8:55 AM34 °FLow clouds.6 mph100%29.69 "Hg7 mi
8:35 AM33 °FDrizzle. Low clouds.5 mph100%29.69 "Hg7 mi
8:15 AM33 °FLight snow. Low clouds.5 mph100%29.69 "Hg4 mi
7:55 AM33 °FLight rain. Low clouds.6 mph100%29.68 "Hg2 mi
7:35 AM34 °FRain. Low clouds.7 mph100%29.68 "Hg3 mi
7:15 AM34 °FLight rain. Low clouds.6 mph100%29.68 "Hg5 mi
6:35 AM34 °FLow clouds.8 mph100%29.68 "Hg7 mi
6:15 AM34 °FLow clouds.8 mph100%29.68 "Hg10 mi
5:55 AM34 °FLow clouds.8 mph100%29.69 "Hg10 mi
5:35 AM34 °FLow clouds.8 mph100%29.69 "Hg10 mi
5:15 AM34 °FLow clouds.9 mph100%29.69 "Hg10 mi
4:55 AM34 °FLight rain. Mostly cloudy.8 mph100%29.71 "Hg10 mi
4:35 AM34 °FLight rain. Overcast.10 mph100%29.71 "Hg10 mi
4:15 AM34 °FLight rain. Mostly cloudy.9 mph100%29.72 "Hg10 mi
3:55 AM34 °FLight rain. Mostly cloudy.12 mph100%29.72 "Hg10 mi
3:35 AM34 °FLight snow. Mostly cloudy.9 mph100%29.73 "Hg10 mi
3:15 AM33 °FLight snow. Overcast.9 mph100%29.74 "Hg7 mi
2:55 AM33 °FLight snow. Low clouds.9 mph100%29.76 "Hg1 mi
1:55 AM33 °FLight snow. Mostly cloudy.10 mph100%29.77 "Hg2 mi
1:35 AM33 °FLight snow. Mostly cloudy.10 mph100%29.77 "Hg4 mi
1:15 AM33 °FLight snow. Low clouds.9 mph100%29.77 "Hg2 mi
12:55 AM33 °FLight snow. Low clouds.9 mph100%29.79 "Hg2 mi
12:15 AM34 °FLight snow. Overcast.9 mph100%29.81 "Hg4 mi
11:55 PM
Mon, Nov 30
34 °FLight snow. Overcast.9 mph100%29.82 "Hg7 mi
11:35 PM33 °FOvercast.9 mph100%29.82 "Hg10 mi
10:55 PM33 °FLow clouds.10 mph100%29.84 "Hg7 mi
10:15 PM33 °FLow clouds.9 mph100%29.86 "Hg7 mi
9:55 PM33 °FLight snow. Low clouds.6 mph100%29.87 "Hg1 mi
9:15 PM33 °FLight snow. Low clouds.6 mph100%29.91 "Hg1 mi
8:55 PM33 °FLight snow. Low clouds.6 mph100%29.91 "Hg1 mi
8:35 PM33 °FSnow. Low clouds.9 mph100%29.92 "Hg1 mi
8:15 PM34 °FLight snow. Mostly cloudy.7 mph100%29.93 "Hg2 mi
Weather by CustomWeather, © 2015

See weather overviewHow to use our weather pages